User: anonymous   Login
Location: Ammerl�gen
(47.2167°N, 9.6000°E)
Time: 13:00:38
(UTC+00:00)
Language:

Cosmos 389 Rocket - Orbit

View from above orbital plane
View from above orbital plane
View from above satellite
View from above satellite

Ground track
Ground track

The orbit data is extracted from the following two-line orbital elements,

1 04814U 70113B   21173.88590825  .00001703  00000-0  46344-4 0  9994
2 04814  81.1422  71.4772 0024803  75.1311 285.2674 15.36580791759998
Epoch (UTC): 22 June 2021 21:15:42
Eccentricity: 0.0024803
inclination: 81.1422°
perigee height: 439 km
apogee height: 473 km
right ascension of ascending node: 71.4772°
argument of perigee: 75.1311°
revolutions per day: 15.36580791
mean anomaly at epoch: 285.2674°
orbit number at epoch: 75999

The dashed part of the orbit path shows where the satellite is in the earth's shadow,  

DLR